Weather History for KRDU - September, 2014

Change the Weather History Date:

Wednesday, September 3, 2014

  Actual Average Record
Temperature  
Mean Temperature 82 °F 76 °F  
Max Temperature 93 °F 86 °F 99 °F (2010)
Min Temperature 71 °F 66 °F 50 °F (1958)
Degree Days  
Heating Degree Days 0 0  
Month to date heating degree days 0 0  
Since 1 July heating degree days 0 1  
Cooling Degree Days 17 11  
Month to date cooling degree days 54 33  
Year to date cooling degree days 1412 1474  
Growing Degree Days 32 (Base 50)    
Moisture  
Dew Point 68 °F    
Average Humidity 67    
Maximum Humidity 90    
Minimum Humidity 44    
Precipitation  
Precipitation T in 0.16 in 2.79 in (1913)
Month to date precipitation T 0.48  
Year to date precipitation 38.41 30.02  
Sea Level Pressure  
Sea Level Pressure 30.04 in    
Wind  
Wind Speed 5 mph (South)    
Max Wind Speed 17 mph    
Max Gust Speed 24 mph    
Visibility 10 miles    
Events Rain , Thunderstorm    
T = Trace of Precipitation, MM = Missing Value Source: NWS Daily Summary

Daily Weather History Graph

Daily Weather History Graph

Search for Another Location

Airport or City:

Trip Planner

Search our weather history database for the weather conditions in past years. The results will help you decide how hot, cold, wet, or windy it might be!

Date:

Astronomy

Sep. 03, 2014 Rise Set
Actual Time 6:48 AM EDT 7:39 PM EDT
Civil Twilight 6:22 AM EDT 8:05 PM EDT
Nautical Twilight 5:51 AM EDT 8:36 PM EDT
Astronomical Twilight 5:19 AM EDT 9:08 PM EDT
Moon 3:14 PM EDT (9/3) 12:46 AM EDT (9/3)
Length of Visible Light 13h 43m
Length of Day
12h 51m
Waxing Gibbous, 63% of the Moon is Illuminated
Sep 3
Waxing Gibbous
Sep 8
Full
Sep 15
Last Quarter
Sep 24
New
Oct 1
First Quarter

Hourly Weather History & Observations

Time (EDT) Temp. Heat Index Dew Point Humidity Pressure Visibility Wind Dir Wind Speed Gust Speed Precip Events Conditions
12:51 AM 75.0 °F - 69.1 °F 82% 30.00 in 10.0 mi WSW 5.8 mph - N/A   Mostly Cloudy
1:51 AM 75.9 °F - 69.1 °F 79% 30.01 in 10.0 mi WSW 9.2 mph - N/A   Mostly Cloudy
2:51 AM 73.9 °F - 69.1 °F 85% 30.00 in 10.0 mi SW 9.2 mph - 0.00 in   Mostly Cloudy
3:51 AM 73.9 °F - 69.1 °F 85% 29.98 in 10.0 mi SW 9.2 mph - N/A   Mostly Cloudy
4:51 AM 73.9 °F - 69.1 °F 85% 29.97 in 10.0 mi Calm Calm - N/A   Mostly Cloudy
5:51 AM 72.0 °F - 68.0 °F 87% 29.99 in 10.0 mi WSW 5.8 mph - N/A   Mostly Cloudy
6:51 AM 72.0 °F - 68.0 °F 87% 30.01 in 8.0 mi SW 6.9 mph - N/A   Mostly Cloudy
7:51 AM 73.0 °F - 69.1 °F 87% 30.03 in 10.0 mi WSW 5.8 mph - N/A   Scattered Clouds
8:51 AM 75.9 °F - 70.0 °F 82% 30.04 in 10.0 mi WSW 3.5 mph - N/A   Scattered Clouds
9:51 AM 80.1 °F 83.2 °F 70.0 °F 71% 30.05 in 10.0 mi Calm Calm - N/A   Scattered Clouds
10:51 AM 84.0 °F 87.0 °F 68.0 °F 58% 30.06 in 10.0 mi NE 3.5 mph - N/A   Mostly Cloudy
11:51 AM 87.8 °F 90.4 °F 66.2 °F 49% 30.07 in 10.0 mi NE 4.6 mph - N/A   Mostly Cloudy
12:51 PM 88.0 °F 90.7 °F 66.9 °F 49% 30.04 in 10.0 mi Calm Calm - N/A   Scattered Clouds
1:51 PM 90.0 °F 93.6 °F 68.0 °F 48% 30.04 in 10.0 mi NE 4.6 mph - N/A   Scattered Clouds
2:51 PM 91.0 °F 95.2 °F 68.0 °F 47% 30.03 in 10.0 mi NE 8.1 mph - N/A   Scattered Clouds
3:51 PM 91.9 °F 95.4 °F 66.9 °F 44% 30.02 in 10.0 mi Variable 3.5 mph - N/A   Scattered Clouds
4:51 PM 91.0 °F 94.3 °F 66.9 °F 45% 30.00 in 10.0 mi ENE 5.8 mph - N/A   Scattered Clouds
5:51 PM 90.0 °F 92.8 °F 66.9 °F 46% 30.00 in 10.0 mi Variable 4.6 mph - N/A   Scattered Clouds
6:51 PM 88.0 °F 92.1 °F 69.1 °F 53% 30.03 in 10.0 mi East 5.8 mph - N/A   Mostly Cloudy
7:26 PM 82.4 °F 85.4 °F 68.0 °F 62% 30.05 in 10.0 mi North - - N/A Thunderstorm Thunderstorm
7:51 PM 81.0 °F 83.3 °F 66.9 °F 62% 30.06 in 10.0 mi ENE 3.5 mph - N/A Thunderstorm Thunderstorm
8:51 PM 77.0 °F - 66.9 °F 71% 30.08 in 10.0 mi East 3.5 mph - N/A Thunderstorm Thunderstorm
9:10 PM 78.8 °F - 66.2 °F 65% 30.11 in 10.0 mi Calm Calm - N/A   Mostly Cloudy
9:51 PM 75.9 °F - 68.0 °F 76% 30.10 in 10.0 mi Calm Calm - N/A   Mostly Cloudy
10:51 PM 75.9 °F - 69.1 °F 79% 30.10 in 10.0 mi Variable 4.6 mph - N/A   Mostly Cloudy
11:51 PM 75.2 °F - 66.2 °F 73% 30.14 in 10.0 mi South 5.8 mph - N/A   Mostly Cloudy